Regional Weather Roundup
Issued by NWS Newport/Morehead, NC

Current Version | Previous Version | Text Only | Print | Product List | Glossary On
Versions: 1 2 3 4 5 6 7 8 9 10 11 12 13 14 15 16 17 18 19 20 21 22 23 24 25 26 27 28 29 30 31 32 33 34 35 36 37 38 39 40 41 42 43 44 45 46 47 48 49 50
000 ASUS42 KMHX 090624 RWRMHX WEATHER ROUNDUP FOR EASTERN NORTH CAROLINA NATIONAL WEATHER SERVICE NEWPORT/MOREHEAD CITY NC 100 AM EST FRI DEC 09 2016 NOTE: "FAIR" INDICATES FEW OR NO CLOUDS BELOW 12,000 FEET WITH NO SIGNIFICANT WEATHER AND/OR OBSTRUCTIONS TO VISIBILITY NCZ015>017-031-032-045>047-102-103-090700- NORTH COAST CITY SKY/WX TMP DP RH WIND PRES REMARKS EDENTON PTCLDY 40 26 58 CALM 30.19S ELIZABETH CITY CLEAR 36 24 62 W10 30.18R KITTY HAWK CLEAR 42 28 58 NW9 30.14R MANTEO CLEAR 43 25 48 N14G23 30.16R $$ NCZ045>047-081-094-103-104-090700- CENTRAL COAST CITY SKY/WX TMP DP RH WIND PRES REMARKS FRISCO PTCLDY 46 28 49 NW10G22 30.15S $$ NCZ095-097-098-100-101-090700- SOUTHERN COAST CITY SKY/WX TMP DP RH WIND PRES REMARKS BEAUFORT PTCLDY 45 29 53 NW13 30.19R CEDAR ISLAND NOT AVBL JACKSONVILLE PTCLDY 38 32 79 W9 30.21R PINEY ISLAND CLEAR N/A N/A N/A NW16G25 30.18R WILMINGTON PTCLDY 40 29 64 NW7 30.22R $$ NCZ011>013-027>030-043-044-078>080-089-090>093-098-090700- COASTAL PLAIN CITY SKY/WX TMP DP RH WIND PRES REMARKS AHOSKIE CLEAR 32 22 67 CALM 30.21R CLINTON CLEAR 39 26 59 NW3 30.25R ELIZABETHTOWN PTCLDY 41 27 56 NW7 30.24R GOLDSBORO PTCLDY 40 19 43 NW6 30.21R GREENVILLE CLEAR 37 21 52 NW5 30.22R HAVELOCK CLEAR 43 24 47 NW12 30.21R KENANSVILLE CLEAR 39 21 48 NW5 30.23S KINSTON CLEAR 38 22 51 CALM 30.23R NEW BERN CLEAR 41 24 51 NW8 30.21R RICHLANDS PTCLDY 38 29 70 CALM 30.22R ROCKY MOUNT CLEAR 37 19 48 NW7 30.22R WASHINGTON CLEAR 36 24 60 NW3 30.21R WHITEVILLE CLEAR 40 31 69 CALM 30.24R $$ AMZ130-135-150-152-154-156-158-170-250-252-270-ANZ085-086-088-633-658-670-090700- MARINE OBSERVATIONS STATION/POSITION TIME TEMP WIND PRES WAVE SWELL AIR SEA DIR/SP/G HT/PER HT/PER (UTC) (F) (DEG/KT/KT) (MB) (FT/S) (FT/S) CHESAPEAKE LIGHT NOT AVBL 64 E VA BEACH 0550 48 59 340/ 19/ 23 1018.9 5/ 6 2/ 9 DUCK 0600 43 53 310/ 17/ 20 1020.4 2 E DUCK NOT AVBL OREGON INLET 0600 45 54 310/ 17/ 21 1020.6 13E OREGON INLT NOT AVBL HATTERAS CG 0600 47 59 320/ 22/ 25 1020.2 DIAMOND BUOY 0550 51 76 340/ 21/ 25 1020.2 5/ 5 2/10 CAPE LOOKOUT 0600 47 320/ 18/ 22 1021.6 BEAUFORT LAB 0600 44 54 330/ 6/ 12 1021.3 30 SE NEW RVR IN 0608 52 70 340/ 17/ 25 1022.1 30 SE NEW RVR IN NOT AVBL 27 SE WRIGHTSVLE 0608 52 68 340/ 17/ 25 1021.9 5 SE WRIGHTSVLE 0608 46 61 330/ 19/ 27 1022.1 225 S CAPE HAT 0550 68 74 350/ 21/ 25 1017.2 6/ 6 2/ 8 41 SE CHARLESTON 0550 56 74 10/ 17/ 21 1022.3 4/ 6 $$

USA.gov is the U.S. government's official web portal to all federal, state and local government web resources and services.